Plant City, FL

6:22 AM EDT on March 26, 2017 (GMT -0400)
Plant City Municipal

Weather History for KPCM - May, 2013

Change the Weather History Date:

Sunday, May 19, 2013

  Actual Average Record
Temperature  
Mean Temperature 80 °F -  
Max Temperature 91 °F 88 °F 96 °F (1944)
Min Temperature 69 °F 64 °F 51 °F (1945)
Cooling Degree Days 15    
Growing Degree Days 30 (Base 50)    
Moisture  
Dew Point 72 °F    
Average Humidity 81    
Maximum Humidity 100    
Minimum Humidity 29    
Precipitation  
Precipitation 0.00 in - - ()
Sea Level Pressure  
Sea Level Pressure 30.07 in    
Wind  
Wind Speed 3 mph (South)    
Max Wind Speed 13 mph    
Max Gust Speed 17 mph    
Visibility 10 miles    
Events      
Averages and records for this station are not official NWS values.
T = Trace of Precipitation, MM = Missing Value Source: NWS Daily Summary

Daily Weather History Graph

Daily Weather History Graph

Search for Another Location

Airport or City:

Trip Planner

Search our weather history database for the weather conditions in past years. The results will help you decide how hot, cold, wet, or windy it might be!

Date:

Astronomy

May. 19, 2013 Rise Set
Actual Time 6:36 AM EDT 8:13 PM EDT
Civil Twilight 6:11 AM EDT 8:39 PM EDT
Nautical Twilight 5:40 AM EDT 9:10 PM EDT
Astronomical Twilight 5:07 AM EDT 9:42 PM EDT
Moon 2:45 PM EDT (5/19) 2:28 AM EDT (5/19)
Length of Visible Light 14h 28m
Length of Day
13h 37m
Waxing Gibbous, 65% of the Moon is Illuminated
May 19
Waxing Gibbous
May 25
Full
May 31
Last Quarter
Jun 8
New
Jun 16
First Quarter

Hourly Weather History & Observations

Time (EDT) Temp. Heat Index Dew Point Humidity Pressure Visibility Wind Dir Wind Speed Gust Speed Precip Events Conditions
12:15 AM 77.0 °F - 73.4 °F 89% 30.09 in 10.0 mi Calm Calm - N/A   Clear
12:35 AM 75.2 °F - 73.4 °F 94% 30.09 in 10.0 mi Calm Calm - N/A   Clear
12:55 AM 73.4 °F - 73.4 °F 100% 30.10 in 10.0 mi Calm Calm - N/A   Clear
1:15 AM 73.4 °F - 73.4 °F 100% 30.09 in 10.0 mi Calm Calm - N/A   Clear
1:35 AM 73.4 °F - 73.4 °F 100% 30.09 in 10.0 mi Calm Calm - N/A   Clear
2:15 AM 73.4 °F - - N/A% 30.07 in 10.0 mi Calm Calm - N/A   Clear
2:35 AM 71.6 °F - - N/A% 30.07 in 10.0 mi SE 3.5 mph - N/A   Clear
2:55 AM 71.6 °F - - N/A% 30.06 in 10.0 mi SE 4.6 mph - N/A   Clear
3:15 AM 73.4 °F - - N/A% 30.06 in 10.0 mi SSE 3.5 mph - N/A   Clear
3:35 AM 73.4 °F - 73.4 °F 100% 30.06 in 10.0 mi Calm Calm - N/A   Clear
3:55 AM 73.4 °F - 73.4 °F 100% 30.06 in 10.0 mi Calm Calm - N/A   Clear
4:15 AM 73.4 °F - 73.4 °F 100% 30.05 in 10.0 mi SSE 3.5 mph - N/A   Clear
4:35 AM 73.4 °F - 73.4 °F 100% 30.05 in 10.0 mi SE 3.5 mph - N/A   Clear
4:55 AM 71.6 °F - - N/A% 30.05 in 10.0 mi SSE 4.6 mph - N/A   Clear
5:15 AM 71.6 °F - - N/A% 30.06 in 10.0 mi Calm Calm - N/A   Clear
5:35 AM 71.6 °F - - N/A% 30.06 in 10.0 mi Calm Calm - N/A   Clear
5:55 AM 71.6 °F - - N/A% 30.07 in 10.0 mi SE 3.5 mph - N/A   Clear
6:15 AM 69.8 °F - - N/A% 30.07 in 10.0 mi Calm Calm - N/A   Clear
6:35 AM 71.6 °F - - N/A% 30.08 in 10.0 mi Calm Calm - N/A   Clear
6:55 AM 71.6 °F - - N/A% 30.09 in 10.0 mi South 3.5 mph - N/A   Clear
7:15 AM 71.6 °F - - N/A% 30.09 in 10.0 mi SSE 3.5 mph - N/A   Clear
7:35 AM 71.6 °F - - N/A% 30.10 in 10.0 mi Calm Calm - N/A   Clear
8:15 AM 73.4 °F - - N/A% 30.11 in 10.0 mi Calm Calm - N/A   Clear
8:35 AM 75.2 °F - - N/A% 30.11 in 10.0 mi Calm Calm - N/A   Clear
8:55 AM 77.0 °F - 77.0 °F 100% 30.12 in 10.0 mi Calm Calm - N/A   Clear
9:15 AM 78.8 °F - 77.0 °F 94% 30.12 in 10.0 mi WSW 3.5 mph - N/A   Clear
9:35 AM 80.6 °F 87.1 °F 77.0 °F 89% 30.13 in 10.0 mi SW 4.6 mph - N/A   Clear
9:55 AM 80.6 °F 86.2 °F 75.2 °F 84% 30.12 in 10.0 mi West 4.6 mph - N/A   Clear
10:15 AM 82.4 °F 87.2 °F 71.6 °F 70% 30.13 in 10.0 mi WSW 5.8 mph - N/A   Clear
10:55 AM 84.2 °F 88.4 °F 69.8 °F 62% 30.12 in 10.0 mi West 4.6 mph - N/A   Clear
11:15 AM 86.0 °F 90.4 °F 69.8 °F 58% 30.12 in 10.0 mi Calm Calm - N/A   Clear
11:35 AM 86.0 °F 90.4 °F 69.8 °F 58% 30.12 in 10.0 mi WSW 5.8 mph - N/A   Clear
11:55 AM - - - N/A% 30.12 in 10.0 mi West 4.6 mph - N/A   Clear
12:15 PM - - - N/A% 30.11 in 10.0 mi SSW 5.8 mph - N/A   Clear
12:35 PM - - - N/A% 30.11 in 10.0 mi South 8.1 mph - N/A   Clear
12:55 PM - - - N/A% 30.09 in 10.0 mi SW 5.8 mph - N/A   Clear
1:15 PM - - - N/A% 30.09 in 10.0 mi Calm Calm - N/A   Clear
1:35 PM - - - N/A% 30.07 in 10.0 mi SSW 9.2 mph 17.3 mph N/A   Clear
1:55 PM - - - N/A% 30.07 in 10.0 mi Calm Calm - N/A   Clear
2:15 PM 91.4 °F 89.4 °F 55.4 °F 29% 30.06 in 10.0 mi WSW 5.8 mph - N/A   Clear
2:35 PM - - - N/A% 30.06 in 10.0 mi SW 9.2 mph - N/A   Clear
3:15 PM - - - N/A% 30.05 in 10.0 mi West 12.7 mph 17.3 mph N/A   Scattered Clouds
3:35 PM - - - N/A% 30.04 in 10.0 mi WSW 9.2 mph - N/A   Scattered Clouds
4:15 PM - - - N/A% 30.03 in 10.0 mi WNW 9.2 mph - N/A   Clear
4:35 PM - - - N/A% 30.02 in 10.0 mi SW 6.9 mph - N/A   Clear
4:55 PM 91.4 °F 91.4 °F 60.8 °F 36% 30.01 in 10.0 mi West 8.1 mph - N/A   Clear
5:15 PM 91.4 °F 91.4 °F 60.8 °F 36% 30.01 in 10.0 mi West 6.9 mph - N/A   Clear
5:35 PM 89.6 °F 88.9 °F 59.0 °F 36% 30.01 in 10.0 mi West 6.9 mph - N/A   Clear
5:55 PM - - - N/A% 30.02 in 10.0 mi West 4.6 mph - N/A   Clear
6:15 PM - - - N/A% 30.02 in 10.0 mi NW 8.1 mph - N/A   Clear
6:35 PM - - - N/A% 30.02 in 10.0 mi NW 9.2 mph - N/A   Clear
6:55 PM 89.6 °F 90.1 °F 62.6 °F 40% 30.03 in 10.0 mi NNW 8.1 mph - N/A   Scattered Clouds
7:15 PM 87.8 °F 87.6 °F 60.8 °F 40% 30.04 in 10.0 mi North 6.9 mph - N/A   Overcast
7:35 PM 86.0 °F 93.4 °F 73.4 °F 66% 30.04 in 10.0 mi ENE 9.2 mph - N/A   Mostly Cloudy
7:55 PM 82.4 °F 87.2 °F 71.6 °F 70% 30.05 in 10.0 mi East 5.8 mph - N/A   Overcast
8:15 PM 80.6 °F 87.1 °F 77.0 °F 89% 30.06 in 10.0 mi ESE 8.1 mph - N/A   Overcast
8:35 PM 80.6 °F 86.2 °F 75.2 °F 84% 30.06 in 10.0 mi ESE 5.8 mph - N/A   Overcast
8:55 PM 78.8 °F - 75.2 °F 89% 30.06 in 10.0 mi ESE 6.9 mph - N/A   Mostly Cloudy
9:15 PM 77.0 °F - 77.0 °F 100% 30.06 in 10.0 mi East 6.9 mph - N/A   Mostly Cloudy
9:35 PM 78.8 °F - 77.0 °F 94% 30.07 in 10.0 mi East 8.1 mph - N/A   Mostly Cloudy
9:55 PM 77.0 °F - 77.0 °F 100% 30.08 in 10.0 mi ESE 9.2 mph - N/A   Overcast
10:15 PM 77.0 °F - 77.0 °F 100% 30.09 in 10.0 mi ESE 8.1 mph - N/A   Scattered Clouds
10:35 PM 77.0 °F - 77.0 °F 100% 30.10 in 10.0 mi SE 6.9 mph - N/A   Scattered Clouds
10:55 PM 77.0 °F - 77.0 °F 100% 30.11 in 10.0 mi SE 4.6 mph - N/A   Scattered Clouds
11:15 PM 77.0 °F - 77.0 °F 100% 30.11 in 10.0 mi East 4.6 mph - N/A   Clear
11:35 PM 77.0 °F - 75.2 °F 94% 30.12 in 10.0 mi East 5.8 mph - N/A   Clear